RH
81 81 88 88 75 74 80 75 68 47 33 24 19 22 24 24 24 22 20 17 15 14 14 16 18 17 9 4 6 12 13 14 17 18 18 18 20 21 24 26 25 23 22
83 100 84 86 83 82 79 75 66 38 27 22 19 18 23 23 23 21 19 17 15 14 15 18 19 16 8 4 7 12 14 17 16 14 15 17 21 23 23 26 29 30 30
79 99 65 66 54 59 60 65 54 35 24 23 20 18 23 24 21 19 18 16 15 15 17 19 17 9 5 5 8 14 16 16 14 15 18 21 24 28 31 36 37 37 37
62 92 76 53 33 39 42 42 36 29 27 26 22 20 23 25 20 18 16 15 16 17 20 19 12 6 6 10 16 17 17 16 17 20 24 27 32 37 42 44 46 46 46
52 65 52 38 31 34 31 31 30 30 30 28 26 26 27 23 19 17 16 16 18 22 21 16 8 7 14 20 19 17 18 22 25 29 34 40 44 47 50 53 54 54 54
30 30 27 24 25 26 26 29 33 33 33 33 31 30 26 21 18 16 17 19 23 23 17 9 8 17 20 19 20 25 29 34 39 44 48 52 55 58 58 58 62 63 63
26 26 26 25 25 26 29 32 33 35 36 34 31 29 23 19 17 17 18 23 23 14 9 14 22 23 25 29 34 38 44 50 56 59 61 64 67 70 69 65 64 63 67
34 32 30 29 30 32 32 33 34 35 36 33 30 24 19 17 17 21 25 22 12 15 24 25 29 34 39 45 51 56 62 66 68 69 70 73 72 69 67 66 61 56 55
32 32 30 30 31 32 33 34 35 35 33 29 25 20 18 20 25 26 18 13 23 26 32 39 46 52 57 62 67 72 73 69 70 70 64 64 68 67 64 61 60 54 46
30 30 30 31 31 32 33 34 34 32 29 25 19 19 23 28 25 15 21 27 31 40 50 55 61 66 70 74 74 72 68 62 60 60 59 58 58 57 56 56 54 52 49
28 28 28 28 29 30 31 32 32 29 24 20 21 26 28 18 18 26 29 40 52 60 66 70 76 79 81 77 69 64 63 64 65 66 68 69 68 67 64 60 57 52 48
24 24 24 26 29 30 30 30 28 24 21 23 28 22 17 25 28 40 55 62 69 73 80 86 89 82 74 67 65 68 72 70 73 75 72 68 67 64 57 49 41 35 29
19 22 25 27 28 28 25 22 22 24 28 25 18 24 28 39 55 63 70 76 83 87 89 83 78 71 69 70 76 74 70 66 63 61 59 55 50 44 36 30 25 23 22
23 24 26 26 25 23 22 24 26 24 20 27 34 48 61 67 72 77 85 90 92 89 86 81 78 73 71 72 69 66 62 56 50 44 38 32 28 24 21 19 18 17 17
27 27 26 24 23 25 25 22 22 28 37 56 65 70 75 82 87 91 94 94 92 88 87 82 75 74 69 62 56 48 40 34 29 26 22 18 16 15 14 14 14 17 20
23 24 26 26 22 21 26 32 43 60 65 71 80 84 86 90 95 97 96 95 93 86 76 72 67 60 54 48 40 33 26 21 16 13 12 12 12 13 14 16 19 22 24
23 24 26 30 33 40 54 60 64 73 79 82 88 96 97 98 97 96 94 84 77 75 68 60 52 42 34 29 24 18 15 13 11 10 9 10 10 11 11 12 11 10 10
33 38 47 55 61 67 72 76 78 83 93 99 98 98 98 95 89 80 79 79 73 61 50 42 38 30 24 19 15 13 11 9 7 8 12 16 19 23 28 33 35 32 24
65 68 69 71 75 82 86 92 97 99 98 99 97 92 86 81 81 83 80 67 53 47 44 34 28 21 16 13 12 9 8 8 11 12 13 15 17 17 23 33 48 49 33
72 74 79 84 90 91 96 97 97 95 89 85 88 86 84 83 84 74 61 51 48 40 34 26 19 15 13 10 8 10 12 12 9 7 7 9 14 19 26 42 72 55 52
82 83 86 92 97 100 99 95 89 87 85 83 82 81 87 84 71 60 54 48 41 32 24 18 15 12 10 11 16 13 11 8 8 8 10 14 21 36 50 98 94 79 76
74 77 83 86 86 86 86 84 83 84 82 82 88 94 82 70 61 53 47 39 31 24 18 15 12 9 21 20 15 13 9 10 12 15 16 23 42 60 98 100 100 100 100
71 75 80 87 93 90 89 88 85 82 87 97 97 83 73 63 53 45 37 30 21 16 13 11 11 20 28 20 17 14 12 14 18 26 40 64 88 99 100 100 100 100 100
74 80 84 88 89 89 86 84 90 96 100 100 87 75 65 60 53 41 32 20 15 13 12 16 24 32 31 26 23 24 25 26 34 47 60 79 95 100 100 100 100 100 100
72 79 88 88 84 90 89 92 100 100 99 87 78 68 64 58 43 31 20 15 12 15 24 31 34 35 32 35 33 34 36 42 52 55 63 71 79 85 95 98 100 99 100
71 75 81 81 85 95 99 100 100 98 88 79 74 72 63 47 32 21 16 12 18 31 43 44 42 40 40 45 41 41 46 54 64 69 77 78 82 84 88 89 87 89 87
Wind_Speed
23 21 28 30 31 33 36 37 38 37 37 36 34 34 35 36 37 37 36 36 37 37 38 41 42 43 42 38 33 35 35 36 35 36 36 37 36 36 36 36 36 37 38
26 30 31 33 34 37 39 39 40 39 39 38 38 37 37 38 38 38 39 38 38 39 41 43 44 45 44 39 37 39 41 40 40 39 40 40 40 40 42 44 44 42 42
27 33 33 37 38 39 40 41 41 41 40 40 40 40 39 39 39 39 38 38 40 42 45 45 46 45 43 40 39 43 43 43 44 44 44 45 45 45 46 47 48 48 47
32 36 38 39 40 40 41 43 43 42 42 42 42 42 42 40 40 39 39 42 43 46 47 47 46 45 43 42 44 45 46 47 49 50 50 51 52 52 52 53 52 52 52
36 38 40 41 42 42 43 44 44 44 45 44 44 43 42 41 40 40 42 45 47 49 49 49 48 46 47 49 48 48 51 52 53 54 55 55 56 56 56 56 58 58 57
38 39 41 42 42 44 45 45 46 46 47 46 45 43 43 41 41 43 46 49 51 51 52 51 49 50 50 50 53 54 55 57 58 59 59 60 61 62 62 61 60 59 59
41 41 43 44 45 46 47 48 48 49 48 47 45 44 43 43 45 48 51 52 53 53 52 52 52 52 54 56 57 59 60 61 62 62 63 64 65 66 66 64 63 61 60
41 42 44 45 46 48 49 50 50 49 48 46 44 44 45 48 50 53 53 54 54 53 53 54 56 57 59 61 63 63 64 65 66 67 67 67 68 67 66 65 64 61 60
42 44 46 48 49 50 51 51 51 48 46 44 44 47 50 52 54 55 55 55 54 56 58 59 61 63 64 65 66 67 67 67 68 67 66 66 66 65 65 65 65 64 62
44 47 49 50 51 51 50 49 46 45 44 46 49 52 54 54 56 56 55 56 59 60 62 64 66 67 68 69 69 67 67 66 66 67 67 68 68 69 69 68 68 67 67
46 48 50 51 51 49 47 45 45 45 48 51 53 54 56 56 56 56 59 61 63 65 66 68 69 70 69 67 66 67 67 68 69 71 71 72 72 72 72 72 72 71 72
47 48 48 46 45 44 44 46 48 50 52 53 54 56 56 56 59 61 62 65 67 69 70 70 70 67 66 67 68 69 71 72 73 73 74 74 75 75 76 77 77 78 77
43 42 41 42 43 44 46 48 50 52 54 56 56 56 58 60 62 65 66 69 70 71 70 67 65 66 69 70 72 73 74 75 76 77 79 80 81 81 82 82 82 83 84
37 39 40 42 45 47 48 50 52 54 54 54 57 59 61 64 65 68 70 70 70 67 65 66 68 70 72 73 75 77 78 79 81 83 84 84 85 88 88 89 90 91 92
39 41 43 45 47 49 51 52 52 54 56 58 61 63 65 67 69 70 70 67 65 66 67 69 70 72 74 76 78 81 83 86 87 88 89 91 94 97 98 98 96 94 94
40 42 45 47 49 51 52 54 55 58 60 63 64 66 68 69 68 65 64 65 66 68 69 71 73 74 76 80 83 85 88 90 93 96 97 98 99 97 96 94 93 93 92
43 45 47 49 51 53 55 58 60 62 63 64 66 65 64 63 64 64 65 66 68 69 71 73 76 78 80 83 86 90 95 99 98 97 95 93 89 86 84 82 82 80 78
47 49 50 52 55 57 58 60 61 62 63 61 61 62 63 63 63 64 66 68 70 72 74 77 79 82 83 87 92 97 98 96 93 88 86 84 80 76 75 74 70 66 63
50 52 53 54 55 56 59 60 60 60 60 61 62 62 62 63 65 67 68 70 72 75 77 79 81 84 89 93 96 95 93 91 86 80 76 75 74 72 70 68 63 57 55
50 51 53 55 56 58 58 58 59 60 61 61 62 63 64 65 66 68 70 72 76 78 79 81 85 91 95 95 92 86 85 81 77 71 69 67 65 62 56 53 53 50 45
51 53 54 54 55 56 57 58 59 60 61 62 64 64 65 66 68 70 73 75 76 79 83 85 88 92 89 82 81 77 72 70 66 62 56 53 50 46 41 42 45 44 43
53 53 53 55 57 58 59 59 60 61 62 62 63 64 66 68 70 73 74 76 79 81 84 86 84 75 72 74 71 65 62 58 56 52 48 43 37 34 35 39 41 42 44
52 53 54 55 55 56 57 59 61 62 62 63 63 65 67 70 74 75 77 78 80 82 81 76 70 65 67 65 59 55 53 50 46 44 40 35 31 30 32 35 38 40 42
53 54 55 56 57 58 60 61 61 62 63 64 67 69 71 72 73 75 78 80 80 75 68 64 62 61 60 59 53 49 46 42 38 35 33 32 31 32 33 33 34 37 39
54 55 57 57 59 60 62 62 63 64 65 69 71 72 72 71 72 74 78 78 69 63 61 59 58 58 54 52 47 45 45 42 38 34 32 30 30 31 33 35 36 38 40
58 60 61 63 63 64 64 64 65 67 69 71 72 72 71 71 71 73 72 65 59 58 57 55 54 53 52 49 46 44 43 40 38 36 36 35 35 34 32 30 29 30 31
Wind_Direction
250 251 257 264 265 269 274 281 284 290 294 298 299 298 296 297 300 303 307 309 311 310 309 309 311 311 308 303 292 293 293 296 298 300 303 305 306 304 302 302 302 303 304
245 253 261 267 268 271 275 281 286 289 293 297 299 299 300 300 301 303 306 307 306 303 305 307 310 309 306 300 293 297 299 301 301 301 300 300 300 302 304 306 306 304 303
251 256 261 269 271 271 276 281 286 288 291 296 298 300 301 302 302 302 304 302 301 300 303 307 308 306 303 297 296 300 299 297 297 298 299 301 301 301 301 302 301 301 301
250 255 261 266 269 271 276 280 284 287 291 294 297 299 301 302 300 301 300 298 297 300 304 304 304 303 299 297 297 297 297 299 300 299 300 300 300 300 300 301 299 297 296
253 259 263 265 268 272 275 280 283 287 289 293 296 298 299 299 300 298 296 295 297 300 300 300 300 299 298 300 300 301 300 300 299 299 299 298 298 298 297 296 296 295 294
257 259 263 267 270 273 277 280 283 286 289 292 294 297 298 298 296 294 293 294 296 298 299 300 300 299 300 300 300 300 299 299 299 298 298 297 296 294 293 292 291 291 291
259 262 265 268 271 273 276 279 282 286 288 292 295 296 295 293 291 290 291 295 297 298 298 298 299 299 299 299 299 298 298 298 297 296 295 294 293 292 291 290 289 287 286
259 262 265 268 270 273 275 279 282 285 289 293 294 293 291 290 289 291 295 295 296 298 299 299 299 299 299 299 299 298 297 297 296 294 293 292 292 291 291 289 287 285 285
260 263 265 268 270 274 277 280 283 287 289 291 291 288 287 288 291 293 294 296 297 298 298 299 299 299 299 299 298 297 297 296 295 294 293 292 291 290 290 288 286 285 283
258 261 265 268 271 274 277 281 285 288 288 287 285 285 288 291 292 294 295 296 297 298 298 299 299 299 298 298 298 298 297 297 296 294 294 293 291 290 288 287 286 285 284
258 261 264 267 271 275 280 283 284 284 283 283 285 289 289 291 293 294 295 296 297 298 298 298 298 298 298 299 299 299 298 296 295 294 293 292 290 289 287 286 284 283 282
261 264 267 272 277 279 280 281 282 281 283 286 287 289 292 293 294 294 295 296 297 298 298 298 297 298 300 300 299 298 297 297 295 294 293 291 289 287 285 283 282 281 280
263 269 274 276 278 279 278 279 281 284 286 288 291 291 292 292 293 294 296 297 297 297 297 298 300 301 301 300 299 298 296 295 294 292 291 290 288 286 284 283 282 280 278
271 273 274 274 275 277 281 283 284 286 288 288 289 290 291 293 295 296 296 296 296 298 300 302 302 301 299 298 298 297 296 294 293 291 290 289 288 287 286 284 283 281 279
270 273 275 278 281 282 283 284 285 286 287 289 291 293 295 295 296 295 295 297 299 301 302 302 300 299 299 298 297 296 295 294 292 291 291 290 289 287 285 282 279 277 275
277 278 279 280 279 280 281 284 287 289 291 293 294 295 295 295 296 297 298 301 302 303 301 300 300 300 299 298 298 297 295 294 294 293 291 289 286 284 281 279 278 277 275
275 275 276 278 281 284 287 288 289 291 293 293 294 295 295 296 297 300 301 302 301 301 301 300 299 299 299 298 298 298 298 297 296 293 289 286 285 284 283 282 280 279 279
279 281 282 282 283 285 287 289 290 291 292 293 294 295 296 298 300 301 301 301 302 301 301 301 302 302 302 302 302 301 300 298 296 294 291 289 287 285 283 281 280 281 282
280 282 284 286 287 287 288 291 293 293 293 294 294 296 299 300 301 302 302 302 303 303 304 305 305 305 305 306 306 304 301 298 296 294 291 289 286 284 281 278 278 279 281
288 289 289 289 289 289 291 291 292 293 294 296 298 299 300 301 302 302 304 305 306 307 307 307 308 310 311 309 305 302 302 300 299 297 293 289 286 283 280 277 275 275 278
290 289 289 289 288 289 290 293 295 297 298 298 299 300 302 303 304 305 306 307 308 309 310 312 312 312 310 309 308 307 306 304 302 300 297 291 287 285 280 276 277 277 276
290 290 290 290 292 293 294 294 295 295 296 298 300 302 303 305 306 308 309 311 312 312 312 313 313 312 311 313 313 312 310 309 308 306 303 299 295 287 278 277 279 280 280
290 289 289 290 290 291 292 294 295 297 299 300 301 304 306 308 309 310 312 312 312 313 314 313 313 313 317 318 319 321 319 316 314 311 308 306 303 295 286 281 280 279 279
292 292 292 292 293 294 295 296 297 299 300 302 305 307 308 308 310 312 313 313 314 313 312 312 314 316 318 319 323 327 327 324 321 319 317 310 302 297 292 287 283 281 280
292 293 294 295 295 296 297 299 300 301 303 305 306 307 307 308 311 313 314 314 313 311 312 314 316 317 319 321 323 326 327 326 328 330 327 320 310 302 294 289 286 282 280
295 296 296 296 296 297 298 300 301 303 305 305 306 307 307 309 312 313 314 312 311 312 314 316 317 319 320 322 323 325 325 324 323 323 320 317 313 308 303 299 293 289 286